Regional Weather Roundup
Issued by NWS

Home | Current Version | Previous Version | Graphics & Text | Print | Product List | Glossary On
Versions: 1 2 3 4 5 6 7 8 9 10 11 12 13 14 15 16 17 18 19 20 21 22 23 24 25 26 27 28 29 30 31 32 33 34 35 36 37 38 39 40 41 42 43 44 45 46 47 48 49 50
000
ASUS43 KBIS 270702
RWRND

NORTH DAKOTA REGIONAL WEATHER ROUNDUP
NATIONAL WEATHER SERVICE BISMARCK ND
200 AM CDT FRI APR 27 2018

NOTE: "FAIR" INDICATES FEW OR NO CLOUDS BELOW 12,000 FEET WITH NO
SIGNIFICANT WEATHER AND/OR OBSTRUCTIONS TO VISIBILITY.


NDZ001>003-009>011-017-270800-
NORTHWEST NORTH DAKOTA

CITY           SKY/WX    TMP DP  RH WIND       PRES   REMARKS
WILLISTON      CLEAR     48  31  51 N8        30.01R
MINOT          CLEAR     49  30  48 W14       29.93R
MINOT AFB      CLEAR     43  31  62 NW13      29.92R
$$

NDZ018>021-031>035-040>046-270800-
SOUTHWEST NORTH DAKOTA

CITY           SKY/WX    TMP DP  RH WIND       PRES   REMARKS
BISMARCK       CLEAR     52  30  43 NW10      29.92R
DICKINSON      CLEAR     46  31  55 W12       29.96S
GARRISON         N/A     43  32  65 NW10      29.94R
HETTINGER ARPT CLEAR     39  32  76 NW6       30.02S
$$

NDZ004>008-012>016-024-026-027-054-270800-
NORTHEAST NORTH DAKOTA

CITY           SKY/WX    TMP DP  RH WIND       PRES   REMARKS
GRAND FORKS    FAIR      41  35  79 W10       29.73S
GRND FRKS AFB  FAIR      50  32  49 NW12      29.75R
DEVILS LAKE    FAIR      47  31  53 NW16      29.83R
$$

NDZ022-023-025-028>030-036>039-047>053-270800-
SOUTHEAST NORTH DAKOTA

CITY           SKY/WX    TMP DP  RH WIND       PRES   REMARKS
FARGO          MOCLDY    50  32  50 SW12      29.77F
JAMESTOWN      CLEAR     49  30  48 NW15      29.82S
$$




USA.gov is the U.S. government's official web portal to all federal, state and local government web resources and services.